Regional Weather Roundup
Issued by NWS

Home | Current Version | Previous Version | Text Only | Print | Product List | Glossary Off
Versions: 1 2 3 4 5 6 7 8 9 10 11 12 13 14 15 16 17 18 19 20 21 22 23 24 25 26 27 28 29 30 31 32 33 34 35 36 37 38 39 40 41 42 43 44 45 46 47 48 49 50

000
ASUS44 KMEG 012000
RWRTN
TENNESSEE HOURLY STATE WEATHER ROUNDUP
NATIONAL WEATHER SERVICE MEMPHIS TN
300 PM CDT WED OCT 01 2014

TNZ002-004-019-021-049-052-054-088>092-012100-
WEST TENNESSEE

CITY           SKY/WX    TMP DP  RH WIND       PRES   REMARKS
MEMPHIS INTL   PTSUNNY   87  63  44 SE9       29.88F
NWS MEMPHIS      N/A     87 N/A N/A MISG        N/A
JACKSON        SUNNY     86  60  41 VRB3      29.91F
DYERSBURG      SUNNY     88  57  35 S8        29.90S
$$

TNZ008-025-027-028-033-062-065-066-012100-
NORTH MIDDLE TENNESSEE

CITY           SKY/WX    TMP DP  RH WIND       PRES   REMARKS
NASHVILLE      PTSUNNY   86  55  34 CALM      29.94F
CLARKSVILLE    SUNNY     86  57  37 S6        29.92F
CROSSVILLE     SUNNY     80  43  26 MISG      30.03F
$$

TNZ061-075-076-078-094-096-097-012100-
SOUTH MIDDLE TENNESSEE

CITY           SKY/WX    TMP DP  RH WIND       PRES   REMARKS
$$

TNZ017-018-042-046-047-012100-
NORTHEAST TENNESSEE

CITY           SKY/WX    TMP DP  RH WIND       PRES   REMARKS
TRI CITIES     PTSUNNY   80  45  28 VRB3      30.02S
$$

TNZ012-013-036-069-073-074-012100-
CENTRAL EAST TENNESSEE

CITY           SKY/WX    TMP DP  RH WIND       PRES   REMARKS
KNOXVILLE      PTSUNNY   83  54  36 N5        29.98F
OAK RIDGE      SUNNY     83  52  34 E7        30.01S
$$

TNZ083-085-099-012100-
SOUTHEAST TENNESSEE

CITY           SKY/WX    TMP DP  RH WIND       PRES   REMARKS
CHATTANOOGA    PTSUNNY   85  54  34 CALM      29.97F
$$

SKY/WX REPORTED AS FAIR MEANS FEW OR NO CLOUDS BELOW
12 THOUSAND FEET.



USA.gov is the U.S. government's official web portal to all federal, state and local government web resources and services.